Weather History for Chico, CA

Change the Weather History Date:

Monday, November 26, 2012

  Actual Average (KOVE) Record (KOVE)
Temperature  
Mean Temperature 52 °F -  
Max Temperature 62 °F 59 °F 84 °F (1959)
Min Temperature 41 °F 38 °F 27 °F (1993)
Degree Days  
Heating Degree Days 14    
Growing Degree Days 2 (Base 50)    
Moisture  
Dew Point 44 °F    
Average Humidity 83    
Maximum Humidity 93    
Minimum Humidity 54    
Precipitation  
Precipitation 0.00 in - - ()
Sea Level Pressure  
Sea Level Pressure 30.05 in    
Wind  
Wind Speed 2 mph (NNW)    
Max Wind Speed 12 mph    
Max Gust Speed -    
Visibility 10 miles    
Events      
Averages and records for this station are not official NWS values.
T = Trace of Precipitation, MM = Missing Value Source: NWS Daily Summary

Daily Weather History Graph

Daily Weather History Graph

Search for Another Location

Airport:

Trip Planner

Search our weather history database for the weather conditions in past years. The results will help you decide how hot, cold, wet, or windy it might be!

Date:

Astronomy

Nov. 26, 2012 Rise Set
Actual Time 7:04 AM PST 4:44 PM PST
Civil Twilight 6:35 AM PST 5:14 PM PST
Nautical Twilight 6:02 AM PST 5:47 PM PST
Astronomical Twilight 5:29 AM PST 6:20 PM PST
Moon 3:40 PM PST (11/26) 5:20 AM PST (11/26)
Length of Visible Light 10h 39m
Length of Day
9h 39m
Waxing Gibbous, 97% of the Moon is Illuminated
Nov 26
Waxing Gibbous
Nov 28
Full
Dec 6
Last Quarter
Dec 13
New
Dec 19
First Quarter

Hourly Weather History & Observations

Time (PST) Temp. Windchill Dew Point Humidity Pressure Visibility Wind Dir Wind Speed Gust Speed Precip Events Conditions
12:15 AM 50.0 °F - 44.6 °F 82% 29.98 in 10.0 mi Calm Calm - N/A   Clear
12:35 AM 48.2 °F - 44.6 °F 87% 29.98 in 10.0 mi Calm Calm - N/A   Clear
12:55 AM 46.4 °F 45.2 °F 42.8 °F 87% 29.98 in 10.0 mi West 3.5 mph - N/A   Clear
1:15 AM 44.6 °F - 42.8 °F 93% 29.99 in 10.0 mi Calm Calm - N/A   Clear
1:35 AM 42.8 °F 41.1 °F 41.0 °F 93% 29.99 in 10.0 mi WNW 3.5 mph - N/A   Clear
1:55 AM 44.6 °F - 42.8 °F 93% 30.00 in 10.0 mi Calm Calm - N/A   Clear
2:15 AM 42.8 °F - 41.0 °F 93% 30.00 in 10.0 mi Calm Calm - N/A   Clear
2:35 AM 44.6 °F - 42.8 °F 93% 30.00 in 10.0 mi Calm Calm - N/A   Clear
2:55 AM 44.6 °F - 42.8 °F 93% 30.00 in 10.0 mi Calm Calm - N/A   Clear
3:15 AM 44.6 °F - 42.8 °F 93% 30.01 in 10.0 mi Calm Calm - N/A   Clear
3:35 AM 44.6 °F - 41.0 °F 87% 30.01 in 10.0 mi Calm Calm - N/A   Clear
3:55 AM 44.6 °F - 42.8 °F 93% 30.02 in 10.0 mi Calm Calm - N/A   Clear
4:15 AM 44.6 °F - 42.8 °F 93% 30.02 in 10.0 mi Calm Calm - N/A   Clear
4:35 AM 44.6 °F - 42.8 °F 93% 30.03 in 10.0 mi Calm Calm - N/A   Clear
4:55 AM 44.6 °F - 41.0 °F 87% 30.03 in 10.0 mi Calm Calm - N/A   Clear
5:15 AM 41.0 °F - 39.2 °F 93% 30.04 in 10.0 mi Calm Calm - N/A   Clear
5:35 AM 41.0 °F - 39.2 °F 93% 30.04 in 10.0 mi Calm Calm - N/A   Clear
5:55 AM 44.6 °F - 41.0 °F 87% 30.05 in 10.0 mi Calm Calm - N/A   Clear
6:15 AM 44.6 °F - 41.0 °F 87% 30.05 in 10.0 mi Calm Calm - N/A   Clear
6:35 AM 42.8 °F - 39.2 °F 87% 30.06 in 10.0 mi Calm Calm - N/A   Clear
6:50 AM 44.6 °F 41.4 °F 41.0 °F 87% 30.06 in 10.0 mi North 5.8 mph - N/A   Mostly Cloudy
7:58 AM 46.4 °F 43.5 °F 41.0 °F 81% 30.06 in 80.0 mi NNE 5.8 mph - N/A   Mostly Cloudy
8:50 AM 48.2 °F - 46.4 °F 93% 30.09 in 80.0 mi WNW 5.8 mph - N/A   Mostly Cloudy
9:50 AM 53.6 °F - 46.4 °F 77% 30.10 in 40.0 mi WNW 9.2 mph - N/A   Scattered Clouds
10:47 AM 55.4 °F - 46.4 °F 72% 30.10 in 40.0 mi WNW 11.5 mph - N/A   Scattered Clouds
11:47 AM 57.2 °F - 48.2 °F 72% 30.08 in 40.0 mi WNW 5.8 mph - N/A   Scattered Clouds
12:58 PM 59.0 °F - 44.6 °F 59% 30.06 in 40.0 mi NW 5.8 mph - N/A   Scattered Clouds
1:47 PM 62.6 °F - 46.4 °F 55% 30.04 in 40.0 mi WNW 5.8 mph - N/A   Scattered Clouds
2:54 PM 62.6 °F - 46.4 °F 55% 30.03 in 40.0 mi NW 9.2 mph - N/A   Scattered Clouds
3:50 PM 62.6 °F - 46.4 °F 55% 30.03 in 40.0 mi NW 5.8 mph - N/A   Scattered Clouds
4:47 PM 60.8 °F - 46.4 °F 59% 30.03 in 40.0 mi NW 9.2 mph - N/A   Scattered Clouds
5:58 PM 55.4 °F - 39.2 °F 54% 30.04 in 10.0 mi NNE 5.8 mph - N/A   Scattered Clouds
6:47 PM 51.8 °F - 46.4 °F 82% 30.05 in 10.0 mi Calm Calm - N/A   Scattered Clouds
6:55 PM 50.0 °F - 44.6 °F 82% 30.05 in 10.0 mi ENE 4.6 mph - N/A   Clear
7:15 PM 50.0 °F - 44.6 °F 82% 30.05 in 10.0 mi ENE 5.8 mph - N/A   Clear
7:35 PM 50.0 °F - 44.6 °F 82% 30.06 in 10.0 mi ENE 5.8 mph - N/A   Clear
7:55 PM 50.0 °F - 44.6 °F 82% 30.06 in 10.0 mi Calm Calm - N/A   Clear
8:15 PM 50.0 °F - 44.6 °F 82% 30.07 in 10.0 mi Calm Calm - N/A   Clear
8:35 PM 50.0 °F - 44.6 °F 82% 30.07 in 10.0 mi ENE 3.5 mph - N/A   Clear
8:55 PM 50.0 °F - 44.6 °F 82% 30.07 in 10.0 mi NE 3.5 mph - N/A   Partly Cloudy
9:15 PM 50.0 °F - 44.6 °F 82% 30.08 in 10.0 mi NE 4.6 mph - N/A   Partly Cloudy
9:35 PM 50.0 °F - 44.6 °F 82% 30.08 in 10.0 mi ENE 4.6 mph - N/A   Partly Cloudy
9:55 PM 50.0 °F - 44.6 °F 82% 30.09 in 10.0 mi Calm Calm - N/A   Clear
10:15 PM 44.6 °F 41.4 °F 42.8 °F 93% 30.09 in 10.0 mi NW 5.8 mph - N/A   Clear
10:35 PM 44.6 °F 42.2 °F 42.8 °F 93% 30.09 in 10.0 mi NNW 4.6 mph - N/A   Clear
10:55 PM 46.4 °F 45.2 °F 44.6 °F 93% 30.09 in 10.0 mi North 3.5 mph - N/A   Clear
11:15 PM 48.2 °F - 44.6 °F 87% 30.09 in 10.0 mi Calm Calm - N/A   Clear
11:35 PM 46.4 °F - 44.6 °F 93% 30.10 in 10.0 mi Calm Calm - N/A   Clear
11:55 PM 46.4 °F - 44.6 °F 93% 30.10 in 10.0 mi Calm Calm - N/A   Clear